sat.trackr.live / text

‹ back to catalog

APSTAR-6E SPS

NORAD 55447 · 2023-005C

PAYLOAD ACTIVE UNKNOWN

§ Identity

Operator
Country
PRC
Launch date
2023-01-12
Launch site
XICLF
Launch vehicle
Mass (kg)
RCS (m²)

External: N2YO · Heavens-Above · Gunter

§ Orbital elements

Epoch: 2026-05-25T03:42:24.871392Z

Period
189.33 min
Inclination
28.6507°
Eccentricity
0.2271746
Mean motion
7.60560646 rev/d
Perigee alt
2,062.9 km
Apogee alt
7,025.4 km
Semi-major
10,922.3 km
B*
9.1382e-3
RAAN
335.8939°
Arg perigee
186.8530°
Mean anomaly
169.4737°
Rev number
9,211

§ Raw data

APSTAR-6E SPS1 55447U 23005C   26145.15445453  .00000066  00000+0  91382-2 0  99902 55447  28.6507 335.8939 2271746 186.8530 169.4737  7.60560646 92115

JSON: /api/v1/satellites/55447 · /tle

For live sub-satellite position, see the globe view (requires WebGL).

§ Visibility from observer

Set your observer location to see the next 7 days of passes ≥ 10°. The values pass through the URL so the page stays shareable.

No JS? Fill the form by hand. The geolocation button needs JavaScript.